CFG8HE LOWW-EDDF

Flight info

Callsign CFG8HE
Flight time 1h 0m
Altitude 34000
Route BUWUT DCT DITIS DCT RAPET T170 GAPLA/N0406F240 T178 KERAX KERAX5A
Aircraft A321/M-SDE3FGIJ1LORVWXYZ/LB1

Departure

Time 2026-04-16 09:16
Airport Vienna International Airport (LOWW)

Arrival

Time 2026-04-16 10:16
Airport Frankfurt Main Airport (EDDF)
Time Latitude Longitude Altitude Speed Heading
2026-04-16 07:41 48.12088 16.55658 610 ft 0 kts 115°
2026-04-16 09:05 48.12089 16.55656 619 ft 2 kts 115°
2026-04-16 09:05 48.12101 16.55622 624 ft 4 kts 130°
2026-04-16 09:05 48.12121 16.55599 624 ft 4 kts 167°
2026-04-16 09:06 48.12138 16.55599 618 ft 0 kts 206°
2026-04-16 09:09 48.12137 16.55598 618 ft 0 kts 206°
2026-04-16 09:09 48.12111 16.55579 622 ft 8 kts 206°
2026-04-16 09:09 48.12039 16.55527 616 ft 13 kts 206°
2026-04-16 09:09 48.11962 16.55471 612 ft 12 kts 206°
2026-04-16 09:10 48.11888 16.55434 610 ft 11 kts 188°
2026-04-16 09:10 48.11819 16.55436 614 ft 9 kts 152°
2026-04-16 09:10 48.11784 16.55508 613 ft 9 kts 116°
2026-04-16 09:10 48.11744 16.55630 618 ft 17 kts 116°
2026-04-16 09:11 48.11687 16.55808 620 ft 19 kts 116°
2026-04-16 09:11 48.11630 16.55982 619 ft 18 kts 116°
2026-04-16 09:11 48.11577 16.56145 615 ft 17 kts 116°
2026-04-16 09:11 48.11528 16.56297 625 ft 16 kts 116°
2026-04-16 09:12 48.11481 16.56438 622 ft 15 kts 116°
2026-04-16 09:12 48.11438 16.56569 620 ft 13 kts 116°
2026-04-16 09:12 48.11399 16.56688 620 ft 12 kts 115°
2026-04-16 09:12 48.11365 16.56795 620 ft 11 kts 115°
2026-04-16 09:13 48.11334 16.56893 626 ft 10 kts 115°
2026-04-16 09:13 48.11306 16.56979 619 ft 9 kts 116°
2026-04-16 09:13 48.11279 16.57061 618 ft 9 kts 116°
2026-04-16 09:13 48.11249 16.57152 621 ft 10 kts 116°
2026-04-16 09:14 48.11215 16.57228 623 ft 8 kts 145°
2026-04-16 09:14 48.11167 16.57225 611 ft 7 kts 202°
2026-04-16 09:14 48.11123 16.57193 619 ft 7 kts 206°
2026-04-16 09:14 48.11074 16.57149 616 ft 10 kts 225°
2026-04-16 09:15 48.11074 16.57045 622 ft 14 kts 294°
2026-04-16 09:15 48.11138 16.56846 612 ft 39 kts 295°
2026-04-16 09:15 48.11360 16.56166 623 ft 105 kts 296°
2026-04-16 09:15 48.11762 16.54934 618 ft 156 kts 296°
2026-04-16 09:16 48.12275 16.53358 985 ft 168 kts 296°
2026-04-16 09:16 48.12482 16.51680 1710 ft 169 kts 264°
2026-04-16 09:16 48.12204 16.49925 2155 ft 181 kts 258°
2026-04-16 09:16 48.11868 16.48028 2486 ft 197 kts 260°
2026-04-16 09:17 48.11752 16.45940 2799 ft 208 kts 278°
2026-04-16 09:17 48.11951 16.43696 3093 ft 230 kts 281°
2026-04-16 09:17 48.12205 16.41215 3489 ft 251 kts 281°
2026-04-16 09:17 48.12483 16.38595 4246 ft 257 kts 280°
2026-04-16 09:18 48.12767 16.35928 5124 ft 260 kts 280°
2026-04-16 09:18 48.13045 16.33280 5976 ft 262 kts 281°
2026-04-16 09:18 48.13329 16.30564 6828 ft 265 kts 281°
2026-04-16 09:18 48.13617 16.27819 7642 ft 267 kts 281°
2026-04-16 09:19 48.13911 16.25063 8453 ft 269 kts 283°
2026-04-16 09:19 48.14538 16.22423 9304 ft 270 kts 300°
2026-04-16 09:19 48.15675 16.20174 10192 ft 273 kts 316°
2026-04-16 09:19 48.17224 16.18517 10976 ft 278 kts 330°
2026-04-16 09:20 48.19023 16.17171 11317 ft 301 kts 332°
2026-04-16 09:20 48.20950 16.15748 11556 ft 324 kts 332°
2026-04-16 09:20 48.23045 16.14203 11815 ft 344 kts 332°
2026-04-16 09:20 48.25222 16.12599 12427 ft 352 kts 332°
2026-04-16 09:21 48.27436 16.10967 13141 ft 357 kts 332°
2026-04-16 09:21 48.29682 16.09308 13861 ft 362 kts 332°
2026-04-16 09:21 48.31961 16.07620 14510 ft 367 kts 332°
2026-04-16 09:21 48.34264 16.05909 15171 ft 371 kts 332°
2026-04-16 09:22 48.36591 16.04176 15829 ft 375 kts 332°
2026-04-16 09:22 48.38938 16.02424 16505 ft 378 kts 332°
2026-04-16 09:22 48.41268 16.00683 17149 ft 381 kts 332°
2026-04-16 09:22 48.43650 15.98902 17827 ft 384 kts 332°
2026-04-16 09:23 48.46059 15.97101 18481 ft 387 kts 332°
2026-04-16 09:23 48.48482 15.95290 19011 ft 390 kts 332°
2026-04-16 09:23 48.50923 15.93459 19547 ft 393 kts 331°
2026-04-16 09:23 48.53376 15.91614 20095 ft 395 kts 331°
2026-04-16 09:24 48.55721 15.89449 20609 ft 396 kts 321°
2026-04-16 09:24 48.57773 15.86673 21133 ft 396 kts 311°
2026-04-16 09:24 48.59475 15.83389 21658 ft 397 kts 303°
2026-04-16 09:24 48.61015 15.79969 22183 ft 400 kts 303°
2026-04-16 09:25 48.62590 15.76475 22694 ft 403 kts 303°
2026-04-16 09:25 48.64174 15.72963 23218 ft 406 kts 303°
2026-04-16 09:25 48.65769 15.69423 23742 ft 409 kts 303°
2026-04-16 09:25 48.67374 15.65846 24174 ft 412 kts 302°
2026-04-16 09:26 48.68986 15.62247 24628 ft 414 kts 302°
2026-04-16 09:26 48.70545 15.58575 25056 ft 415 kts 298°
2026-04-16 09:26 48.71952 15.54745 25460 ft 417 kts 297°
2026-04-16 09:26 48.73367 15.50887 25853 ft 419 kts 297°
2026-04-16 09:27 48.74785 15.47013 26233 ft 421 kts 297°
2026-04-16 09:27 48.76189 15.43174 26596 ft 423 kts 297°
2026-04-16 09:27 48.77617 15.39261 26980 ft 425 kts 297°
2026-04-16 09:27 48.79052 15.35321 27345 ft 427 kts 297°
2026-04-16 09:28 48.80516 15.31388 27698 ft 430 kts 300°
2026-04-16 09:28 48.82223 15.27655 28051 ft 433 kts 303°
2026-04-16 09:28 48.83981 15.23927 28411 ft 435 kts 303°
2026-04-16 09:28 48.85752 15.20184 28773 ft 437 kts 303°
2026-04-16 09:29 48.87534 15.16427 29122 ft 438 kts 303°
2026-04-16 09:29 48.89310 15.12678 29588 ft 437 kts 303°
2026-04-16 09:29 48.91070 15.08979 30079 ft 435 kts 304°
2026-04-16 09:29 48.92865 15.05279 30509 ft 434 kts 304°
2026-04-16 09:30 48.94674 15.01607 30917 ft 433 kts 304°
2026-04-16 09:30 48.96481 14.97947 31311 ft 432 kts 304°
2026-04-16 09:30 48.98278 14.94300 31709 ft 431 kts 304°
2026-04-16 09:30 49.00070 14.90642 32076 ft 430 kts 304°
2026-04-16 09:31 49.01849 14.86986 32354 ft 429 kts 303°
2026-04-16 09:31 49.03619 14.83338 32619 ft 427 kts 303°
2026-04-16 09:31 49.05379 14.79697 32875 ft 426 kts 303°
2026-04-16 09:31 49.07113 14.76104 33137 ft 426 kts 303°
2026-04-16 09:32 49.08888 14.72426 33408 ft 425 kts 303°
2026-04-16 09:32 49.10640 14.68792 33680 ft 424 kts 303°
2026-04-16 09:32 49.12387 14.65164 33954 ft 424 kts 303°
2026-04-16 09:32 49.14114 14.61580 34176 ft 424 kts 303°
2026-04-16 09:33 49.15859 14.57957 34239 ft 421 kts 303°
2026-04-16 09:33 49.19315 14.50759 34235 ft 418 kts 303°
2026-04-16 09:34 49.22745 14.43573 34232 ft 418 kts 302°
2026-04-16 09:34 49.26171 14.36379 34230 ft 418 kts 302°
2026-04-16 09:35 49.29571 14.29232 34231 ft 417 kts 302°
2026-04-16 09:35 49.32975 14.22051 34250 ft 416 kts 302°
2026-04-16 09:36 49.36374 14.14871 34248 ft 415 kts 302°
2026-04-16 09:36 49.39759 14.07700 34243 ft 414 kts 302°
2026-04-16 09:37 49.43138 14.00521 34237 ft 414 kts 302°
2026-04-16 09:37 49.46502 13.93342 34239 ft 414 kts 302°
2026-04-16 09:38 49.49840 13.86199 34238 ft 413 kts 302°
2026-04-16 09:38 49.53182 13.79021 34235 ft 412 kts 302°
2026-04-16 09:39 49.56504 13.71887 34235 ft 412 kts 302°
2026-04-16 09:39 49.59846 13.64705 34229 ft 412 kts 302°
2026-04-16 09:40 49.63175 13.57517 34250 ft 412 kts 302°
2026-04-16 09:40 49.66498 13.50330 34245 ft 411 kts 301°
2026-04-16 09:41 49.69810 13.43148 34238 ft 410 kts 301°
2026-04-16 09:41 49.73117 13.35948 34233 ft 410 kts 301°
2026-04-16 09:42 49.76388 13.28803 34228 ft 410 kts 301°
2026-04-16 09:42 49.79679 13.21600 34223 ft 409 kts 301°
2026-04-16 09:43 49.82960 13.14388 34210 ft 409 kts 301°
2026-04-16 09:43 49.86244 13.07169 34210 ft 409 kts 301°
2026-04-16 09:44 49.89523 12.99947 34209 ft 409 kts 301°
2026-04-16 09:44 49.92791 12.92711 34232 ft 409 kts 301°
2026-04-16 09:45 49.96050 12.85471 34224 ft 408 kts 301°
2026-04-16 09:45 49.99281 12.78287 34237 ft 408 kts 301°
2026-04-16 09:46 50.02517 12.71057 34233 ft 407 kts 301°
2026-04-16 09:46 50.05748 12.63834 34233 ft 406 kts 301°
2026-04-16 09:47 50.08975 12.56599 34224 ft 406 kts 301°
2026-04-16 09:47 50.12171 12.49406 34216 ft 406 kts 301°
2026-04-16 09:48 50.15383 12.42160 34194 ft 406 kts 301°
2026-04-16 09:48 50.18527 12.34858 34192 ft 403 kts 295°
2026-04-16 09:49 50.20652 12.26842 34191 ft 399 kts 287°
2026-04-16 09:49 50.22532 12.18665 34200 ft 400 kts 287°
2026-04-16 09:50 50.24219 12.10424 34207 ft 396 kts 276°
2026-04-16 09:50 50.24228 12.01899 34212 ft 395 kts 268°
2026-04-16 09:51 50.24076 11.93316 34205 ft 396 kts 268°
2026-04-16 09:51 50.23905 11.84708 34202 ft 396 kts 268°
2026-04-16 09:52 50.23762 11.77540 34206 ft 397 kts 268°
2026-04-16 09:52 50.23586 11.68921 34053 ft 396 kts 268°
2026-04-16 09:52 50.23494 11.64614 33317 ft 397 kts 268°
2026-04-16 09:53 50.23399 11.60289 32530 ft 400 kts 268°
2026-04-16 09:53 50.23302 11.55938 31740 ft 402 kts 268°
2026-04-16 09:53 50.23205 11.51556 30953 ft 405 kts 269°
2026-04-16 09:53 50.23107 11.47142 30139 ft 408 kts 269°
2026-04-16 09:54 50.23007 11.42698 29199 ft 411 kts 269°
2026-04-16 09:54 50.22904 11.38226 28437 ft 412 kts 269°
2026-04-16 09:54 50.22799 11.33746 27901 ft 412 kts 269°
2026-04-16 09:54 50.22691 11.29278 27374 ft 410 kts 269°
2026-04-16 09:55 50.22585 11.24892 26869 ft 408 kts 269°
2026-04-16 09:55 50.22476 11.20481 26363 ft 406 kts 268°
2026-04-16 09:55 50.22367 11.16083 25863 ft 404 kts 269°
2026-04-16 09:55 50.22258 11.11712 25373 ft 402 kts 268°
2026-04-16 09:56 50.22144 11.07365 24891 ft 399 kts 268°
2026-04-16 09:56 50.22029 11.03039 24426 ft 397 kts 268°
2026-04-16 09:56 50.21911 10.98732 24222 ft 397 kts 268°
2026-04-16 09:56 50.21792 10.94425 24227 ft 397 kts 268°
2026-04-16 09:57 50.21660 10.90116 24228 ft 397 kts 268°
2026-04-16 09:57 50.21499 10.85807 24231 ft 398 kts 267°
2026-04-16 09:57 50.21324 10.81497 24231 ft 398 kts 267°
2026-04-16 09:57 50.21142 10.77178 24134 ft 398 kts 267°
2026-04-16 09:58 50.20962 10.72920 23900 ft 397 kts 267°
2026-04-16 09:58 50.20781 10.68635 23637 ft 395 kts 267°
2026-04-16 09:58 50.20603 10.64364 23369 ft 394 kts 267°
2026-04-16 09:58 50.20426 10.60093 23087 ft 392 kts 267°
2026-04-16 09:59 50.20251 10.55886 22638 ft 385 kts 267°
2026-04-16 09:59 50.20078 10.51755 22134 ft 378 kts 267°
2026-04-16 09:59 50.19907 10.47693 21666 ft 372 kts 267°
2026-04-16 09:59 50.19733 10.43686 21214 ft 366 kts 267°
2026-04-16 10:00 50.19560 10.39752 20777 ft 361 kts 267°
2026-04-16 10:00 50.19391 10.35864 20356 ft 356 kts 267°
2026-04-16 10:00 50.19230 10.32071 19945 ft 354 kts 267°
2026-04-16 10:01 50.18890 10.24418 18978 ft 355 kts 266°
2026-04-16 10:01 50.18710 10.20501 18018 ft 366 kts 266°
2026-04-16 10:01 50.18532 10.16534 17321 ft 367 kts 266°
2026-04-16 10:01 50.18356 10.12572 16750 ft 365 kts 266°
2026-04-16 10:02 50.18180 10.08640 16215 ft 362 kts 266°
2026-04-16 10:02 50.18004 10.04730 15700 ft 360 kts 266°
2026-04-16 10:02 50.17824 10.00848 15195 ft 357 kts 266°
2026-04-16 10:02 50.17641 9.96994 14691 ft 355 kts 266°
2026-04-16 10:03 50.17458 9.93165 14195 ft 353 kts 266°
2026-04-16 10:03 50.17272 9.89357 13671 ft 351 kts 266°
2026-04-16 10:03 50.17084 9.85580 13130 ft 349 kts 266°
2026-04-16 10:03 50.16902 9.81825 12592 ft 346 kts 266°
2026-04-16 10:04 50.16726 9.78139 12221 ft 345 kts 266°
2026-04-16 10:04 50.16548 9.74401 11961 ft 346 kts 266°
2026-04-16 10:04 50.16363 9.70660 11708 ft 345 kts 266°
2026-04-16 10:04 50.16176 9.66933 11455 ft 344 kts 266°
2026-04-16 10:05 50.15991 9.63213 11208 ft 343 kts 266°
2026-04-16 10:05 50.15810 9.59520 10955 ft 341 kts 266°
2026-04-16 10:05 50.15631 9.55835 10707 ft 338 kts 266°
2026-04-16 10:05 50.15455 9.52253 10564 ft 324 kts 266°
2026-04-16 10:06 50.15282 9.48818 10440 ft 311 kts 266°
2026-04-16 10:06 50.15115 9.45525 10322 ft 298 kts 266°
2026-04-16 10:06 50.14951 9.42368 10197 ft 286 kts 266°
2026-04-16 10:06 50.14791 9.39301 9930 ft 280 kts 266°
2026-04-16 10:07 50.14637 9.36341 9788 ft 277 kts 266°
2026-04-16 10:07 50.14483 9.33352 9656 ft 276 kts 266°
2026-04-16 10:07 50.14326 9.30366 9401 ft 277 kts 266°
2026-04-16 10:07 50.14167 9.27373 8978 ft 276 kts 266°
2026-04-16 10:08 50.14007 9.24384 8551 ft 277 kts 266°
2026-04-16 10:08 50.13847 9.21415 8169 ft 275 kts 266°
2026-04-16 10:08 50.13685 9.18436 7830 ft 273 kts 266°
2026-04-16 10:08 50.13526 9.15515 7451 ft 269 kts 265°
2026-04-16 10:09 50.13368 9.12615 6905 ft 267 kts 265°
2026-04-16 10:09 50.13211 9.09731 6352 ft 267 kts 265°
2026-04-16 10:09 50.13056 9.06890 5789 ft 266 kts 265°
2026-04-16 10:09 50.12897 9.04029 5230 ft 264 kts 264°
2026-04-16 10:10 50.12740 9.01178 4667 ft 263 kts 264°
2026-04-16 10:10 50.12582 8.98348 4136 ft 260 kts 264°
2026-04-16 10:10 50.12428 8.95614 3991 ft 243 kts 264°
2026-04-16 10:10 50.12168 8.93118 4021 ft 224 kts 252°
2026-04-16 10:11 50.11655 8.90913 4003 ft 210 kts 249°
2026-04-16 10:11 50.11139 8.88800 4002 ft 207 kts 249°
2026-04-16 10:11 50.10640 8.86699 3999 ft 207 kts 249°
2026-04-16 10:11 50.10144 8.84595 3837 ft 206 kts 250°
2026-04-16 10:12 50.09650 8.82496 3582 ft 206 kts 250°
2026-04-16 10:12 50.09156 8.80402 3315 ft 206 kts 250°
2026-04-16 10:12 50.08667 8.78327 3053 ft 200 kts 250°
2026-04-16 10:12 50.08194 8.76325 2778 ft 194 kts 250°
2026-04-16 10:13 50.07742 8.74413 2502 ft 182 kts 250°
2026-04-16 10:13 50.07328 8.72662 2273 ft 168 kts 250°
2026-04-16 10:13 50.06941 8.71028 2079 ft 156 kts 249°
2026-04-16 10:13 50.06585 8.69511 1860 ft 144 kts 250°
2026-04-16 10:14 50.06396 8.68008 1583 ft 139 kts 262°
2026-04-16 10:14 50.06310 8.66516 1352 ft 137 kts 261°
2026-04-16 10:14 50.06102 8.65070 1171 ft 137 kts 249°
2026-04-16 10:14 50.05736 8.63681 1082 ft 140 kts 245°
2026-04-16 10:15 50.05363 8.62267 901 ft 142 kts 247°
2026-04-16 10:15 50.05026 8.60823 699 ft 142 kts 248°
2026-04-16 10:15 50.04679 8.59376 523 ft 143 kts 246°
2026-04-16 10:15 50.04336 8.57945 372 ft 139 kts 246°
2026-04-16 10:16 50.04035 8.56715 365 ft 97 kts 251°
2026-04-16 10:16 50.03904 8.56150 359 ft 30 kts 252°
2026-04-16 10:16 50.03881 8.55890 359 ft 14 kts 278°
2026-04-16 10:16 50.03895 8.55756 357 ft 10 kts 281°
2026-04-16 10:17 50.03905 8.55672 351 ft 5 kts 280°
2026-04-16 10:17 50.03910 8.55637 356 ft 3 kts 282°
2026-04-16 10:17 50.03945 8.55606 350 ft 10 kts
2026-04-16 10:17 50.03993 8.55721 353 ft 14 kts 69°
2026-04-16 10:18 50.04025 8.55854 358 ft 12 kts 70°
2026-04-16 10:18 50.04053 8.55973 358 ft 11 kts 69°
2026-04-16 10:18 50.04079 8.56078 357 ft 10 kts 69°
2026-04-16 10:18 50.04101 8.56168 360 ft 8 kts 69°
2026-04-16 10:19 50.04120 8.56247 357 ft 7 kts 68°
2026-04-16 10:19 50.04149 8.56287 354 ft 4 kts 15°
2026-04-16 10:19 50.04177 8.56278 356 ft 6 kts 340°
2026-04-16 10:19 50.04234 8.56244 358 ft 9 kts 340°
2026-04-16 10:20 50.04284 8.56212 364 ft 6 kts 325°
2026-04-16 10:20 50.04290 8.56139 359 ft 10 kts 269°
2026-04-16 10:20 50.04336 8.56061 356 ft 9 kts 337°
2026-04-16 10:20 50.04393 8.56031 362 ft 8 kts 351°
2026-04-16 10:21 50.04437 8.56064 360 ft 8 kts 51°
2026-04-16 10:21 50.04458 8.56139 363 ft 7 kts 70°
2026-04-16 10:21 50.04474 8.56210 363 ft 6 kts 70°
2026-04-16 10:21 50.04488 8.56268 360 ft 5 kts 69°
2026-04-16 10:22 50.04503 8.56331 363 ft 8 kts 69°
2026-04-16 10:22 50.04520 8.56400 359 ft 5 kts 69°
2026-04-16 10:22 50.04519 8.56438 357 ft 3 kts 111°
2026-04-16 10:22 50.04496 8.56466 356 ft 4 kts 153°
2026-04-16 10:23 50.04479 8.56477 360 ft 1 kts 158°
2026-04-16 10:23 50.04473 8.56481 361 ft 0 kts 159°
2026-04-16 10:23 50.04471 8.56481 361 ft 0 kts 159°
2026-04-16 10:23 50.04469 8.56482 363 ft 1 kts 159°
2026-04-16 10:24 50.04469 8.56483 363 ft 0 kts 159°